sat.trackr.live / text

‹ back to catalog

FGN-100-D3

NORAD 68464 · 2026-067BA

PAYLOAD ACTIVE UNKNOWN

§ Identity

Operator
Country
TURK
Launch date
2026-03-30
Launch site
AFWTR
Launch vehicle
Mass (kg)
RCS (m²)

External: N2YO · Heavens-Above · Gunter

§ Orbital elements

Epoch: 2026-09-19T16:41:04.599168Z

Period
94.84 min
Inclination
97.4625°
Eccentricity
0.0004779
Mean motion
15.18397230 rev/d
Perigee alt
507.4 km
Apogee alt
514.0 km
Semi-major
6,888.8 km
B*
1.6521e-4
RAAN
219.6884°
Arg perigee
106.4305°
Mean anomaly
253.7455°
Rev number
2,627

§ Raw data

FGN-100-D31 68464U 26067BA  26262.69519212  .00003330  00000+0  16521-3 0  99982 68464  97.4625 219.6884 0004779 106.4305 253.7455 15.18397230 26274

JSON: /api/v1/satellites/68464 · /tle

For live sub-satellite position, see the globe view (requires WebGL).

§ Visibility from observer

Set your observer location to see the next 7 days of passes ≥ 10°. The values pass through the URL so the page stays shareable.

No JS? Fill the form by hand. The geolocation button needs JavaScript.